map of ITB home
Great Circle Mapper logo
ITB - Airport
Location
City:  Itaituba, Pará, Brazil
ICAO / IATA:SBIH / ITB

Details
Type:Airport (Aerodrome, Airfield)
Use:Public/Civil
Latitude:4°14'32"S (-4.242341)
Longitude:56°00'02"W (-56.000668)
Datum:WGS 1984
Elevation:110 ft (34 m)
Variation:17.71°W (WMM2015 magnetic declination)
-0.10° annual change
Runways:1
Longest:5266 × 98 ft (1605 × 30 m), paved

Time
Time Zone:UTC-4
Local Time:

Weather
METAR:SBIH 060245Z 00000KT CAVOK 27/25 Q1013
TAF:SBIH 060400Z 0606/0618 00000KT 8000 SCT005 TN23/0606Z TX35/0616Z PROB30 0609/0611 09005KT 5000 RA
BECMG 0613/0614 06010KT 9999 SCT017
BECMG 0616/0617 07005KT SCT020 FEW025TCU
RMK PEN

Related Locations
Nearby:
Farthest:NAH: 12335 mi / 19851 km
Tahuna (Naha), SA, ID

Find:

   beyond  
but within

Other Information
Maps:
NOTAMs:
Links:
Sources:

  
flag of Brazil
flag of Pará
  

Sectional Chart

Flight Planning
at skyvector.com

Satellite Image

Google Maps Satellite view

 

Copyright © 2004-2016 Karl L. Swartz. All rights reserved.
The Great Circle Mapper name and logo are trademarks of the Great Circle Mapper.
All other trademarks mentioned herein belong to their respective owners.
Please see credits for attibutions and further copyright information.

  Follow gcmap on Facebook Follow gcmap on Twitter Follow gcmap on Google+ GCmap on LinkedIn

hCard Microformat

Geo Microformat